VKG1792 ESGG-LCLK

Flight info

Callsign VKG1792
Flight time N/A
Altitude 35000
Route TOPLA DCT ROXUB DCT POKEN DCT ELTUB DCT UNVOX DCT TUPUR DCT ADVAB DCT ARMEX L619 NUDRO DCT REGLI DCT SOPAV DCT BILNA DCT TEGRI DCT PADGU DCT LOMOS DCT RODIP UN131 PIBOM DCT BELGI UN131 KULAR UT39 TOMBI DCT DASNI M601 BONEK
Aircraft A321/M-SDE2E3FGHIJ1RWXYZ/LB2

Departure

Time 2026-05-06 15:50
Airport Göteborg Landvetter Airport (ESGG)

Arrival

Time N/A
Airport Larnaca International Airport (LCLK)
Time Latitude Longitude Altitude Speed Heading
2026-05-06 15:20 57.66850 12.29368 516 ft 0 kts 116°
2026-05-06 15:39 57.66852 12.29362 516 ft 3 kts 116°
2026-05-06 15:39 57.66863 12.29317 516 ft 4 kts 116°
2026-05-06 15:40 57.66872 12.29282 516 ft 4 kts 90°
2026-05-06 15:40 57.66862 12.29247 516 ft 4 kts 29°
2026-05-06 15:40 57.66856 12.29240 516 ft 0 kts 26°
2026-05-06 15:45 57.66858 12.29242 516 ft 2 kts 26°
2026-05-06 15:45 57.66907 12.29287 516 ft 14 kts 26°
2026-05-06 15:45 57.67001 12.29372 516 ft 15 kts 26°
2026-05-06 15:46 57.67089 12.29451 516 ft 13 kts 26°
2026-05-06 15:46 57.67170 12.29525 516 ft 14 kts 26°
2026-05-06 15:46 57.67234 12.29582 516 ft 16 kts 26°
2026-05-06 15:46 57.67340 12.29675 516 ft 16 kts 14°
2026-05-06 15:47 57.67397 12.29543 516 ft 14 kts 291°
2026-05-06 15:47 57.67434 12.29376 515 ft 12 kts 295°
2026-05-06 15:47 57.67460 12.29254 515 ft 0 kts 279°
2026-05-06 15:48 57.67460 12.29253 515 ft 1 kts 277°
2026-05-06 15:49 57.67459 12.29173 514 ft 11 kts 269°
2026-05-06 15:49 57.67441 12.29042 515 ft 10 kts 220°
2026-05-06 15:49 57.67304 12.28913 515 ft 49 kts 206°
2026-05-06 15:49 57.66796 12.28453 513 ft 110 kts 206°
2026-05-06 15:50 57.65954 12.27679 507 ft 157 kts 206°
2026-05-06 15:50 57.64903 12.26728 885 ft 165 kts 206°
2026-05-06 15:50 57.63877 12.25810 1547 ft 163 kts 206°
2026-05-06 15:50 57.62880 12.24903 2036 ft 163 kts 206°
2026-05-06 15:51 57.61828 12.23945 2373 ft 173 kts 206°
2026-05-06 15:51 57.60612 12.23302 2505 ft 194 kts 182°
2026-05-06 15:51 57.59198 12.23192 2651 ft 213 kts 184°
2026-05-06 15:51 57.57661 12.22981 2780 ft 232 kts 185°
2026-05-06 15:52 57.55959 12.22732 2966 ft 256 kts 182°
2026-05-06 15:52 57.54149 12.23011 3533 ft 265 kts 172°
2026-05-06 15:52 57.52348 12.23483 4213 ft 268 kts 172°
2026-05-06 15:52 57.50491 12.23984 4906 ft 272 kts 172°
2026-05-06 15:53 57.48607 12.24499 5571 ft 275 kts 172°
2026-05-06 15:53 57.46704 12.25017 6215 ft 278 kts 172°
2026-05-06 15:53 57.44806 12.25529 6828 ft 281 kts 172°
2026-05-06 15:53 57.42861 12.26051 7433 ft 284 kts 172°
2026-05-06 15:54 57.40896 12.26579 8012 ft 287 kts 172°
2026-05-06 15:54 57.38912 12.27112 8574 ft 290 kts 172°
2026-05-06 15:54 57.36906 12.27652 9119 ft 293 kts 172°
2026-05-06 15:54 57.34855 12.28206 9648 ft 295 kts 172°
2026-05-06 15:55 57.32840 12.28752 10146 ft 298 kts 172°
2026-05-06 15:55 57.30748 12.29318 10366 ft 312 kts 172°
2026-05-06 15:55 57.28546 12.29908 10497 ft 327 kts 172°
2026-05-06 15:55 57.26243 12.30518 10624 ft 342 kts 172°
2026-05-06 15:56 57.23842 12.31152 10770 ft 354 kts 172°
2026-05-06 15:56 57.21379 12.31803 11110 ft 360 kts 172°
2026-05-06 15:56 57.18889 12.32466 11531 ft 363 kts 172°
2026-05-06 15:56 57.16381 12.33137 11945 ft 366 kts 172°
2026-05-06 15:57 57.13878 12.34077 12337 ft 369 kts 163°
2026-05-06 15:57 57.11509 12.35913 12723 ft 372 kts 152°
2026-05-06 15:57 57.09222 12.38170 13106 ft 374 kts 152°
2026-05-06 15:57 57.06922 12.40436 13481 ft 376 kts 152°
2026-05-06 15:58 57.04604 12.42712 13847 ft 379 kts 152°
2026-05-06 15:58 57.02273 12.44993 14204 ft 381 kts 152°
2026-05-06 15:58 56.99924 12.47280 14550 ft 383 kts 152°
2026-05-06 15:58 56.97555 12.49581 14887 ft 386 kts 152°
2026-05-06 15:59 56.95179 12.51886 15208 ft 388 kts 152°
2026-05-06 15:59 56.92787 12.54207 15518 ft 390 kts 152°
2026-05-06 15:59 56.90385 12.56535 15816 ft 392 kts 152°
2026-05-06 15:59 56.87971 12.58874 16103 ft 394 kts 152°
2026-05-06 16:00 56.85539 12.61225 16380 ft 396 kts 152°
2026-05-06 16:00 56.83101 12.63579 16646 ft 398 kts 152°
2026-05-06 16:00 56.80648 12.65939 16902 ft 399 kts 153°
2026-05-06 16:00 56.78189 12.68299 17147 ft 401 kts 153°
2026-05-06 16:01 56.75706 12.70679 17383 ft 403 kts 153°
2026-05-06 16:01 56.73221 12.73065 17608 ft 404 kts 152°
2026-05-06 16:01 56.70730 12.75462 17827 ft 406 kts 152°
2026-05-06 16:01 56.68229 12.77865 18034 ft 407 kts 152°
2026-05-06 16:02 56.65715 12.80273 18234 ft 409 kts 153°
2026-05-06 16:02 56.63190 12.82675 18427 ft 410 kts 153°
2026-05-06 16:02 56.60656 12.85082 18609 ft 412 kts 153°
2026-05-06 16:02 56.58120 12.87487 18784 ft 413 kts 153°
2026-05-06 16:03 56.55570 12.89904 18952 ft 414 kts 153°
2026-05-06 16:03 56.53010 12.92330 19113 ft 415 kts 153°
2026-05-06 16:03 56.50483 12.94725 19265 ft 416 kts 153°
2026-05-06 16:03 56.47881 12.97193 19417 ft 418 kts 153°
2026-05-06 16:04 56.45339 12.99598 19564 ft 418 kts 153°
2026-05-06 16:04 56.42718 13.02066 19703 ft 420 kts 153°
2026-05-06 16:04 56.40159 13.04467 19835 ft 421 kts 153°
2026-05-06 16:04 56.37528 13.06932 19966 ft 422 kts 153°
2026-05-06 16:05 56.34955 13.09340 20093 ft 422 kts 153°
2026-05-06 16:05 56.32342 13.11787 20218 ft 423 kts 153°
2026-05-06 16:05 56.29729 13.14233 20343 ft 424 kts 153°
2026-05-06 16:05 56.27106 13.16682 20469 ft 425 kts 153°
2026-05-06 16:06 56.24480 13.19128 20594 ft 425 kts 153°
2026-05-06 16:06 56.21855 13.21568 20719 ft 426 kts 153°
2026-05-06 16:06 56.19221 13.24014 20844 ft 426 kts 153°
2026-05-06 16:06 56.16588 13.26464 20969 ft 426 kts 153°
2026-05-06 16:07 56.13958 13.28906 21094 ft 427 kts 153°
2026-05-06 16:07 56.11318 13.31349 21219 ft 427 kts 153°
2026-05-06 16:07 56.08678 13.33789 21343 ft 427 kts 153°
2026-05-06 16:07 56.06041 13.36224 21468 ft 427 kts 153°
2026-05-06 16:08 56.03406 13.38650 21592 ft 427 kts 153°
2026-05-06 16:08 56.00762 13.41080 21716 ft 426 kts 153°
2026-05-06 16:08 55.98126 13.43500 21840 ft 426 kts 153°
2026-05-06 16:08 55.95487 13.45915 21965 ft 426 kts 153°
2026-05-06 16:09 55.92853 13.48321 22090 ft 426 kts 153°
2026-05-06 16:09 55.90217 13.50730 22215 ft 425 kts 153°
2026-05-06 16:09 55.87583 13.53133 22340 ft 425 kts 153°
2026-05-06 16:09 55.84955 13.55528 22464 ft 424 kts 153°
2026-05-06 16:10 55.82330 13.57917 22588 ft 424 kts 153°
2026-05-06 16:10 55.79704 13.60300 22713 ft 423 kts 153°
2026-05-06 16:10 55.77082 13.62672 22837 ft 423 kts 153°
2026-05-06 16:10 55.74460 13.65044 22962 ft 422 kts 153°
2026-05-06 16:11 55.71846 13.67404 23086 ft 421 kts 153°
2026-05-06 16:11 55.69237 13.69759 23211 ft 421 kts 153°
2026-05-06 16:11 55.66631 13.72110 23336 ft 420 kts 153°
2026-05-06 16:11 55.64034 13.74448 23460 ft 419 kts 153°
2026-05-06 16:12 55.61433 13.76783 23585 ft 418 kts 153°
2026-05-06 16:12 55.58837 13.79109 23711 ft 417 kts 153°
2026-05-06 16:12 55.56251 13.81420 23835 ft 416 kts 153°
2026-05-06 16:12 55.53669 13.83728 23960 ft 415 kts 153°
2026-05-06 16:13 55.51129 13.86002 24083 ft 414 kts 153°
2026-05-06 16:13 55.48559 13.88302 24208 ft 413 kts 153°
2026-05-06 16:13 55.45997 13.90587 24332 ft 412 kts 153°
2026-05-06 16:13 55.43436 13.92865 24458 ft 412 kts 153°
2026-05-06 16:14 55.40883 13.95129 24582 ft 410 kts 153°
2026-05-06 16:14 55.38335 13.97385 24707 ft 409 kts 154°
2026-05-06 16:14 55.35794 13.99631 24832 ft 408 kts 153°
2026-05-06 16:14 55.33262 14.01869 24956 ft 407 kts 154°
2026-05-06 16:15 55.30734 14.04096 25081 ft 406 kts 154°
2026-05-06 16:15 55.28205 14.06322 25206 ft 405 kts 154°
2026-05-06 16:15 55.25739 14.08615 25331 ft 404 kts 148°
2026-05-06 16:15 55.23367 14.11237 25455 ft 403 kts 148°
2026-05-06 16:16 55.21002 14.13854 25579 ft 402 kts 148°
2026-05-06 16:16 55.18640 14.16464 25704 ft 401 kts 148°
2026-05-06 16:16 55.16284 14.19060 25828 ft 400 kts 148°
2026-05-06 16:16 55.13937 14.21640 25953 ft 398 kts 148°
2026-05-06 16:17 55.11590 14.24212 26078 ft 397 kts 148°
2026-05-06 16:17 55.09250 14.26775 26203 ft 396 kts 148°
2026-05-06 16:17 55.06920 14.29329 26327 ft 395 kts 148°
2026-05-06 16:17 55.04597 14.31872 26452 ft 394 kts 148°
2026-05-06 16:18 55.02278 14.34405 26576 ft 393 kts 148°
2026-05-06 16:18 54.99962 14.36929 26701 ft 392 kts 148°
2026-05-06 16:18 54.97654 14.39433 26826 ft 390 kts 148°
2026-05-06 16:18 54.95351 14.41930 26951 ft 389 kts 148°
2026-05-06 16:19 54.93057 14.44418 27075 ft 388 kts 148°
2026-05-06 16:19 54.90772 14.46900 27200 ft 387 kts 148°
2026-05-06 16:19 54.88496 14.49370 27324 ft 386 kts 148°
2026-05-06 16:19 54.86221 14.51834 27449 ft 384 kts 148°
2026-05-06 16:20 54.83957 14.54279 27573 ft 383 kts 148°
2026-05-06 16:20 54.81663 14.56612 27698 ft 381 kts 154°
2026-05-06 16:20 54.79260 14.58512 27823 ft 379 kts 156°
2026-05-06 16:20 54.76850 14.60354 27947 ft 378 kts 156°
2026-05-06 16:21 54.74450 14.62194 28071 ft 376 kts 156°
2026-05-06 16:21 54.72064 14.64026 28196 ft 375 kts 156°
2026-05-06 16:21 54.69687 14.65851 28320 ft 373 kts 156°
2026-05-06 16:21 54.67322 14.67664 28444 ft 371 kts 156°
2026-05-06 16:22 54.64971 14.69465 28568 ft 369 kts 156°
2026-05-06 16:22 54.62634 14.71255 28693 ft 367 kts 156°
2026-05-06 16:22 54.60305 14.73038 28817 ft 364 kts 156°
2026-05-06 16:22 54.57996 14.74799 28941 ft 362 kts 156°
2026-05-06 16:23 54.55702 14.76538 29064 ft 359 kts 156°
2026-05-06 16:23 54.53426 14.78264 29188 ft 356 kts 156°
2026-05-06 16:23 54.51166 14.79977 29312 ft 353 kts 156°
2026-05-06 16:23 54.48930 14.81674 29435 ft 350 kts 156°
2026-05-06 16:24 54.46712 14.83358 29559 ft 346 kts 156°
2026-05-06 16:24 54.44519 14.85021 29682 ft 343 kts 156°
2026-05-06 16:24 54.42350 14.86662 29805 ft 339 kts 156°
2026-05-06 16:24 54.40206 14.88278 29928 ft 334 kts 156°
2026-05-06 16:25 54.38088 14.89871 30050 ft 330 kts 156°
2026-05-06 16:25 54.36007 14.91436 30171 ft 324 kts 156°
2026-05-06 16:25 54.31892 14.94540 30095 ft 325 kts 156°
2026-05-06 16:26 54.29811 14.96115 29961 ft 328 kts 156°
2026-05-06 16:26 54.27725 14.97695 29966 ft 327 kts 156°
2026-05-06 16:26 54.23611 15.00824 30038 ft 322 kts 156°
2026-05-06 16:27 54.21557 15.02391 29926 ft 325 kts 156°
2026-05-06 16:27 54.19481 15.03977 29846 ft 327 kts 156°
2026-05-06 16:27 54.15389 15.07113 29919 ft 322 kts 156°
2026-05-06 16:28 54.11265 15.10288 29788 ft 325 kts 156°
2026-05-06 16:28 54.07081 15.13425 28991 ft 351 kts 159°
2026-05-06 16:29 54.04704 15.14915 28240 ft 376 kts 160°
2026-05-06 16:29 54.02265 15.16508 28312 ft 375 kts 158°
2026-05-06 16:29 53.99866 15.18214 28419 ft 373 kts 157°
2026-05-06 16:29 53.97493 15.19985 28537 ft 372 kts 156°
2026-05-06 16:30 53.95135 15.21775 28659 ft 370 kts 156°
2026-05-06 16:30 53.93584 15.22952 28740 ft 368 kts 156°
2026-05-06 16:30 53.90464 15.25296 28903 ft 365 kts 156°
2026-05-06 16:30 53.88140 15.27017 29025 ft 363 kts 157°
2026-05-06 16:31 53.85831 15.28709 29148 ft 360 kts 157°
2026-05-06 16:31 53.83535 15.30383 29272 ft 358 kts 157°
2026-05-06 16:31 53.81259 15.32041 29396 ft 355 kts 157°
2026-05-06 16:31 53.79003 15.33689 29519 ft 352 kts 157°
2026-05-06 16:32 53.76769 15.35319 29643 ft 348 kts 157°
2026-05-06 16:32 53.74553 15.36932 29766 ft 345 kts 157°
2026-05-06 16:32 53.72362 15.38525 29889 ft 341 kts 157°
2026-05-06 16:32 53.70197 15.40098 30012 ft 337 kts 157°
2026-05-06 16:33 53.68060 15.41648 30134 ft 332 kts 157°
2026-05-06 16:33 53.65947 15.43159 30257 ft 327 kts 158°
2026-05-06 16:34 53.60347 15.46769 30220 ft 326 kts 161°
2026-05-06 16:34 53.58192 15.48016 30101 ft 328 kts 162°
2026-05-06 16:34 53.56023 15.49193 30127 ft 326 kts 163°
2026-05-06 16:35 53.51708 15.51310 30176 ft 322 kts 165°
2026-05-06 16:35 53.49526 15.52269 30061 ft 325 kts 166°
2026-05-06 16:35 53.46573 15.53449 29999 ft 326 kts 168°
2026-05-06 16:36 53.42910 15.54729 30066 ft 322 kts 169°
2026-05-06 16:36 53.38488 15.56009 29929 ft 325 kts 172°
2026-05-06 16:37 53.34016 15.57011 29932 ft 322 kts 174°
2026-05-06 16:37 53.29561 15.57723 29879 ft 322 kts 176°
2026-05-06 16:38 53.25072 15.58154 29813 ft 323 kts 178°
2026-05-06 16:38 53.20602 15.58300 29816 ft 321 kts 180°
2026-05-06 16:39 53.16128 15.58163 29725 ft 322 kts 182°
2026-05-06 16:39 53.11666 15.57743 29734 ft 320 kts 185°
2026-05-06 16:40 53.07226 15.57044 29664 ft 321 kts 187°
2026-05-06 16:40 53.02799 15.56063 29650 ft 320 kts 189°
2026-05-06 16:41 52.98414 15.54809 29616 ft 320 kts 191°
2026-05-06 16:41 52.94055 15.53278 29573 ft 320 kts 193°
2026-05-06 16:42 52.89746 15.51479 29563 ft 319 kts 195°
2026-05-06 16:42 52.85483 15.49410 29512 ft 320 kts 198°
2026-05-06 16:43 52.81299 15.47093 29502 ft 319 kts 200°
2026-05-06 16:43 52.77152 15.44503 29465 ft 319 kts 202°
2026-05-06 16:44 52.73069 15.41656 29443 ft 318 kts 204°
2026-05-06 16:44 52.69060 15.38560 29422 ft 318 kts 206°
2026-05-06 16:45 52.65124 15.35214 29390 ft 318 kts 208°
2026-05-06 16:45 52.61274 15.31630 29381 ft 318 kts 211°
2026-05-06 16:46 52.57514 15.27811 29347 ft 318 kts 213°
2026-05-06 16:46 52.53850 15.23765 29336 ft 317 kts 215°
2026-05-06 16:47 52.50283 15.19495 29313 ft 317 kts 217°
2026-05-06 16:47 52.46821 15.15008 29300 ft 317 kts 219°
2026-05-06 16:48 52.43469 15.10313 29279 ft 317 kts 221°
2026-05-06 16:48 52.40230 15.05412 29270 ft 317 kts 224°
2026-05-06 16:49 52.37112 15.00321 29252 ft 317 kts 226°
2026-05-06 16:49 52.34118 14.95042 29241 ft 316 kts 228°
2026-05-06 16:50 52.31250 14.89581 29229 ft 316 kts 230°
2026-05-06 16:50 52.28517 14.83953 29213 ft 316 kts 233°
2026-05-06 16:51 52.25917 14.78157 29203 ft 316 kts 235°
2026-05-06 16:51 52.23475 14.72251 29191 ft 316 kts 237°
2026-05-06 16:52 52.21158 14.66160 29184 ft 316 kts 239°
2026-05-06 16:52 52.18989 14.59932 29172 ft 316 kts 242°
2026-05-06 16:53 52.16970 14.53579 29165 ft 316 kts 244°
2026-05-06 16:53 52.15102 14.47101 29155 ft 316 kts 246°
2026-05-06 16:54 52.13392 14.40521 29149 ft 316 kts 248°
2026-05-06 16:54 52.11838 14.33834 29141 ft 316 kts 250°
2026-05-06 16:55 52.10446 14.27066 29134 ft 316 kts 252°
2026-05-06 16:55 52.09215 14.20214 29130 ft 316 kts 255°
2026-05-06 16:56 52.08149 14.13295 29123 ft 316 kts 257°
2026-05-06 16:56 52.07247 14.06309 29118 ft 316 kts 259°
2026-05-06 16:57 52.06514 13.99284 29111 ft 316 kts 261°
2026-05-06 16:57 52.05948 13.92213 29107 ft 316 kts 263°
2026-05-06 16:58 52.05551 13.85114 29103 ft 315 kts 265°
2026-05-06 16:58 52.05323 13.77996 29100 ft 315 kts 268°
2026-05-06 16:59 52.05266 13.70871 29093 ft 316 kts 270°
2026-05-06 16:59 52.05378 13.63744 29091 ft 315 kts 272°
2026-05-06 17:00 52.05660 13.56633 29085 ft 316 kts 274°
2026-05-06 17:00 52.06111 13.49541 29085 ft 316 kts 277°
2026-05-06 17:01 52.06731 13.42481 29083 ft 315 kts 279°
2026-05-06 17:01 52.07519 13.35465 29076 ft 316 kts 281°
2026-05-06 17:02 52.08473 13.28500 29080 ft 316 kts 283°
2026-05-06 17:02 52.09592 13.21604 29076 ft 316 kts 285°
2026-05-06 17:03 52.10875 13.14774 29075 ft 316 kts 288°
2026-05-06 17:03 52.12318 13.08033 29076 ft 316 kts 290°
2026-05-06 17:04 52.13923 13.01378 29075 ft 316 kts 292°
2026-05-06 17:04 52.15682 12.94833 29075 ft 316 kts 294°
2026-05-06 17:05 52.17600 12.88387 29075 ft 316 kts 296°
2026-05-06 17:05 52.19666 12.82073 29076 ft 316 kts 299°
2026-05-06 17:06 52.21882 12.75887 29079 ft 316 kts 301°
2026-05-06 17:06 52.24242 12.69844 29079 ft 316 kts 303°
2026-05-06 17:07 52.26748 12.63939 29076 ft 316 kts 305°
2026-05-06 17:07 52.29389 12.58200 29087 ft 316 kts 308°
2026-05-06 17:08 52.32165 12.52625 29080 ft 316 kts 310°
2026-05-06 17:08 52.35070 12.47227 29091 ft 316 kts 312°
2026-05-06 17:09 52.38103 12.42009 29087 ft 316 kts 314°
2026-05-06 17:09 52.41237 12.37013 29091 ft 316 kts 316°
2026-05-06 17:10 52.44503 12.32188 29092 ft 317 kts 319°
2026-05-06 17:10 52.47887 12.27560 29094 ft 317 kts 321°
2026-05-06 17:11 52.51374 12.23150 29100 ft 317 kts 323°
2026-05-06 17:11 52.54968 12.18954 29099 ft 317 kts 325°
2026-05-06 17:12 52.58653 12.14989 29106 ft 317 kts 327°
2026-05-06 17:12 52.62433 12.11252 29107 ft 317 kts 329°
2026-05-06 17:13 52.66296 12.07757 29110 ft 317 kts 332°
2026-05-06 17:13 52.70240 12.04504 29114 ft 317 kts 334°
2026-05-06 17:14 52.74258 12.01499 29119 ft 317 kts 336°
2026-05-06 17:14 52.78346 11.98747 29122 ft 317 kts 339°
2026-05-06 17:15 52.82494 11.96256 29127 ft 317 kts 341°
2026-05-06 17:15 52.86696 11.94027 29129 ft 317 kts 343°
2026-05-06 17:16 52.90951 11.92064 29136 ft 317 kts 345°
2026-05-06 17:16 52.95249 11.90372 29140 ft 317 kts 347°
2026-05-06 17:17 52.99583 11.88952 29145 ft 317 kts 349°
2026-05-06 17:17 53.03948 11.87808 29148 ft 318 kts 352°
2026-05-06 17:18 53.08338 11.86943 29151 ft 318 kts 354°
2026-05-06 17:18 53.12743 11.86357 29158 ft 318 kts 356°
2026-05-06 17:19 53.16415 11.86085 29161 ft 318 kts 358°
2026-05-06 17:19 53.20835 11.86016 29167 ft 318 kts
2026-05-06 17:20 53.25257 11.86229 29168 ft 318 kts
2026-05-06 17:20 53.29669 11.86726 29177 ft 318 kts
2026-05-06 17:21 53.34066 11.87506 29181 ft 318 kts
2026-05-06 17:21 53.38450 11.88571 29186 ft 318 kts
2026-05-06 17:22 53.42800 11.89916 29191 ft 318 kts 11°
2026-05-06 17:22 53.47120 11.91542 29197 ft 318 kts 13°
2026-05-06 17:23 53.51399 11.93446 29202 ft 318 kts 16°
2026-05-06 17:23 53.55628 11.95625 29208 ft 318 kts 18°
2026-05-06 17:24 53.59808 11.98080 29213 ft 318 kts 20°
2026-05-06 17:24 53.63929 12.00804 29219 ft 318 kts 22°
2026-05-06 17:25 53.67960 12.03776 29224 ft 318 kts 25°
2026-05-06 17:25 53.71946 12.07029 29228 ft 318 kts 27°
2026-05-06 17:26 53.75855 12.10541 29237 ft 318 kts 29°
2026-05-06 17:26 53.79682 12.14307 29241 ft 318 kts 31°
2026-05-06 17:27 53.83421 12.18323 29248 ft 318 kts 33°
2026-05-06 17:27 53.87066 12.22581 29256 ft 318 kts 36°
2026-05-06 17:28 53.90614 12.27080 29258 ft 318 kts 38°
2026-05-06 17:28 53.94055 12.31806 29268 ft 318 kts 40°
2026-05-06 17:29 53.97385 12.36754 29271 ft 318 kts 42°
2026-05-06 17:29 54.00605 12.41924 29281 ft 318 kts 45°
2026-05-06 17:30 54.03703 12.47302 29287 ft 318 kts 47°
2026-05-06 17:30 54.06676 12.52877 29295 ft 318 kts 49°
2026-05-06 17:31 54.09525 12.58654 29298 ft 318 kts 51°
2026-05-06 17:31 54.12221 12.64570 29303 ft 318 kts 53°
2026-05-06 17:32 54.14800 12.70704 29311 ft 318 kts 56°
2026-05-06 17:32 54.17254 12.77046 29315 ft 318 kts 58°
2026-05-06 17:33 54.19549 12.83507 29323 ft 318 kts 60°